This demonstration page uses our WeatherBlox Daily Observations layout. Learn more.

Left ArrowRight Arrow

Hourly Observations for November 18, 2022

Temp ( °F °C ) Dew Point ( °F °C ) Humidity (%) Winds ( mph kmh ) Pressure ( in mb ) Visibility ( mi km ) Precip ( " mm )
12:53 am 00:53 Cloudy 30 -1.1 10 -12.2 43 43 N 16 26 30.48 1032 10 16 0.00 0.00
1:53 am 01:53 Partly Cloudy 28 -2.2 8 -13.3 42 42 NNE 15 24 30.50 1033 10 16 0.00 0.00
2:53 am 02:53 Partly Cloudy 26 -3.3 5 -15 40 40 NNE 15 24 30.52 1033 10 16 0.00 0.00
3:53 am 03:53 Cloudy 25 -3.9 6 -14.4 44 44 N 18 30 30.51 1033 10 16 0.00 0.00
4:53 am 04:53 Cloudy 24 -4.4 5 -15 43 43 N 14 22 30.52 1034 10 16 0.00 0.00
5:53 am 05:53 Cloudy 23 -5 5 -15 45 45 N 15 24 30.55 1035 10 16 0.00 0.00
6:53 am 06:53 Cloudy 22 -5.6 5 -15 47 47 N 13 20 30.56 1035 10 16 0.00 0.00
7:53 am 07:53 Cloudy 22 -5.6 5 -15 47 47 NNW 16 26 30.57 1035 10 16 0.00 0.00
8:53 am 08:53 Cloudy 22 -5.6 4 -15.6 45 45 NNW 18 30 30.59 1036 10 16 0.00 0.00
9:53 am 09:53 Cloudy 21 -6.1 3 -16.1 45 45 N 16 26 30.59 1036 10 16 0.00 0.00
10:53 am 10:53 Cloudy 24 -4.4 5 -15 43 43 NNW 15 24 30.59 1036 10 16 0.00 0.00
11:53 am 11:53 Cloudy 26 -3.3 5 -15 40 40 N 13 20 30.55 1035 10 16 0.00 0.00
12:53 pm 12:53 Cloudy 27 -2.8 5 -15 38 38 NNW 16 26 30.52 1034 10 16 0.00 0.00
1:53 pm 13:53 Mostly Cloudy 26 -3.3 5 -15 40 40 NW 10 17 30.50 1033 10 16 0.00 0.00
2:53 pm 14:53 Mostly Cloudy 26 -3.3 6 -14.4 42 42 NW 13 20 30.48 1032 10 16 0.00 0.00
3:53 pm 15:53 Mostly Cloudy 26 -3.3 6 -14.4 42 42 WNW 13 20 30.47 1032 10 16 0.00 0.00
4:53 pm 16:53 Mostly Cloudy 25 -3.9 6 -14.4 44 44 NW 10 17 30.46 1031 10 16 0.00 0.00
5:53 pm 17:53 Partly Cloudy 23 -5 6 -14.4 48 48 WNW 7 11 30.46 1032 10 16 0.00 0.00
6:53 pm 18:53 Partly Cloudy 21 -6.1 7 -13.9 54 54 W 5 7 30.46 1032 10 16 0.00 0.00
7:53 pm 19:53 Mostly Clear 19 -7.2 8 -13.3 62 62 SW 6 9 30.46 1032 10 16 0.00 0.00
8:53 pm 20:53 Clear 17 -8.3 8 -13.3 67 67 SW 7 11 30.46 1031 10 16 0.00 0.00
9:53 pm 21:53 Clear 17 -8.3 9 -12.8 70 70 WSW 8 13 30.46 1031 10 16 0.00 0.00
10:53 pm 22:53 Clear 16 -8.9 8 -13.3 70 70 SW 7 11 30.45 1031 10 16 0.00 0.00
11:53 pm 23:53 Clear 16 -8.9 8 -13.3 70 70 SW 8 13 30.44 1031 10 16 0.00 0.00

Powered by AerisWeather